Location: ?ernice
(48.8383°N, 14.3803°E)
Time: 17:02:40
(UTC+00:00)

Cosmos 2360 Rocket - Pass Details

Date: 23 May 2024
Orbit: 832 x 846 km, 71.0° (Epoch: 13 June)

Event Time Altitude Azimuth Distance (km) Brightness Sun altitude
Rises 01:58:07 0° 328° (NNW) 3,416 5.6 -9.9°
Reaches altitude 10° 02:00:39 10° 322° (NW) 2,478 4.8 -9.6°
Maximum altitude 02:06:04 47° 250° (WSW) 1,107 2.5 -9.0°
Drops below altitude 10° 02:11:27 10° 178° (S) 2,460 4.2 -8.4°
Sets 02:13:57 0° 173° (S) 3,390 5.0 -8.1°
